Current Version              Previous Version:    01  02  03  04  05  06  07  08  09  10  11  12  13  14  15  16  17  18  19  20  21  22  23  24  25  26  27  28  29  30  
   31  32  33  34  35  36  37  38  39  40  41  42  43  44  45  46  47  48  49  50  51  52  53  54  55  56  57  58  59  60  

[Printable]
317
ASUS44 KFWD 182203
RWRTX
NORTH TEXAS HOURLY WEATHER ROUNDUP
NATIONAL WEATHER SERVICE FORT WORTH TX
400 PM CST THU DEC 18 2014

NOTE: "FAIR" INDICATES FEW OR NO CLOUDS BELOW 12,000 FEET WITH NO
SIGNIFICANT WEATHER AND/OR OBSTRUCTIONS TO VISIBILITY.

TXZ118-119-182300-
DALLAS/FORT WORTH METROPLEX

CITY           SKY/WX    TMP DP  RH WIND       PRES   REMARKS
DFW AIRPORT    CLOUDY    48  44  86 NW6       30.11R
DALLAS LOVE    CLOUDY    49  45  86 NW5       30.12R FOG
FTW MEACHAM    CLOUDY    51  44  77 VRB5      30.11R
DAL-EXECUTIVE    N/A    N/A N/A N/A MISG      30.11R
FTW-ALLIANCE   CLOUDY    49  43  80 NE6       30.11R
FTW-SPINKS     CLOUDY    50  45  81 N7        30.12R
ARLINGTON      CLOUDY    51  43  74 N8        30.11R
GRAND PRAIRIE  CLOUDY    48  46  93 N5        30.13R
ADDISON        CLOUDY    48  45  87 NW8       30.12R FOG
MESQUITE       CLOUDY    48  46  93 NW6       30.12  FOG
LANCASTER      CLOUDY    48  44  87 N5        30.13R
$$

TXZ091>094-102>105-117-120-121-131>134-182300-
NORTH CENTRAL TEXAS

CITY           SKY/WX    TMP DP  RH WIND       PRES   REMARKS
SHRMAN/DENISON CLOUDY    45  44  98 CALM      30.13S FOG
GAINESVILLE    CLOUDY    47  44  87 NE3       30.14R
BRIDGEPORT     CLOUDY    50  47  87 CALM      30.13R
DECATUR        CLOUDY    50  44  79 CALM      30.11R
DENTON         CLOUDY    49  43  80 NE5       30.12R
MCKINNEY       CLOUDY    46  44  93 NE3       30.13R FOG
ROCKWALL       CLOUDY    47  46  95 CALM      30.12R FOG
TERRELL        CLOUDY    49  46  90 NE6       30.13R
WAXAHACHIE     CLOUDY    49  48  97 N9        30.12R
CLEBURNE       CLOUDY    50  48  93 NE8       30.11R
GRANBURY       CLOUDY    54  47  80 NE3       30.11S
$$

TXZ083>090-098>101-113>116-127>130-139>142-154-155-182300-
WESTERN NORTH TEXAS

CITY           SKY/WX    TMP DP  RH WIND       PRES   REMARKS
WICHITA FALLS  CLOUDY    45  42  89 N8        30.13R FOG
WF-KICKAPOO    CLOUDY    45  45  99 N6        30.14R FOG
VERNON         CLOUDY    47  36  67 NE5       30.13S
ABILENE        PTSUNNY   60  37  42 N9        30.07R
ABILENE-DYESS  PTSUNNY   60  37  41 NE7       30.06R
BRECKENRIDGE   PTSUNNY   55  44  66 N7        30.08S HAZE
MINERAL WELLS  CLOUDY    51  45  79 NE8       30.09R
STEPHENVILLE   CLOUDY    55  49  80 NE9       30.10R
COMANCHE       CLOUDY    64  48  56 NE5       30.05S
COLEMAN        CLOUDY    64  41  42 CALM      30.05R
BRADY          SUNNY     64  43  45 N8        30.03S
$$

TXZ143>147-156>162-174-175-182300-
CENTRAL TEXAS

CITY           SKY/WX    TMP DP  RH WIND       PRES   REMARKS
WACO           CLOUDY    52  47  83 NE6       30.09S
WACO-TSTC      CLOUDY    52  48  87 NE7       30.10S
WACO-MCGREGOR  CLOUDY    52  45  76 NE8       30.10R
HILLSBORO      CLOUDY    50  46  86 N8        30.11R
CORSICANA      CLOUDY    52  48  86 NE6       30.12R
MEXIA          CLOUDY    49  49  99 N5        30.09S FOG
HEARNE         CLOUDY    57  54  90 N9        30.08S
CAMERON        CLOUDY    55  53  91 N9        30.07F FOG
TEMPLE         CLOUDY    55  46  71 NE9       30.07R
KILLEEN        SUNNY     61  52  71 NE10      30.05S
KILLEEN-SKYLRK MOSUNNY   57  46  67 E9        30.03S
FORT HOOD      MOSUNNY   58  50  74 E10       30.05S
GATESVILLE     SUNNY     59  50  72 E8        30.08S
HAMILTON       PTSUNNY   64  47  54 NE6       30.05S
LAMPASAS       SUNNY     64  52  67 NE3       30.04R
$$

TXZ095>097-106>112-122>126-135>138-148>153-164>167-182300-
EAST TEXAS

CITY           SKY/WX    TMP DP  RH WIND       PRES   REMARKS
PARIS          CLOUDY    45  41  87 E5        30.14R
SULPHUR SPRNGS CLOUDY    46  45  93 NE6       30.14S FOG
MOUNT PLEASANT CLOUDY    47  45  92 E6        30.14S
MINEOLA        CLOUDY    48  46  93 CALM      30.12F FOG
TYLER          CLOUDY    50  46  86 E7        30.10S
LONGVIEW       CLOUDY    53  47  79 NE5       30.11R HAZE
MARSHALL       CLOUDY    53  50  89 CALM      30.14R
ATHENS         CLOUDY    50  46  87 NE5       30.09S
PALESTINE      CLOUDY    52  51  96 NE3       30.11R FOG
JACKSONVILLE   CLOUDY    51  50  97 N5        30.11S FOG
HENDERSON      CLOUDY    52  49  90 NE3       30.12R
NACOGDOCHES    CLOUDY    55  48  76 NE7       30.10S
LUFKIN         CLOUDY    58  51  78 VRB5      30.09R
$$

SUPPLEMENTAL OBSERVATIONS (CENTRAL)

CITY           SKY/WX    TMP DP  RH WIND       PRES   REMARKS
$$

SUPPLEMENTAL OBSERVATIONS (WEST)

CITY           SKY/WX    TMP DP  RH WIND       PRES   REMARKS
$$

SUPPLEMENTAL OBSERVATIONS (EAST)

CITY           SKY/WX    TMP DP  RH WIND       PRES   REMARKS
$$

SUPPLEMENTAL OBSERVATIONS ARE A COLLECTION OF AUTOMATED INSTRUMENTS
THAT ARE MAINTAINED BY A VARIETY OF FEDERAL AND STATE AGENCIES.
CERTAIN ELEMENTS...SUCH AS HUMIDITY VALUES AND SUSTAINED WIND
SPEEDS...MAY BE APPROXIMATED.